User: anonymous   Login
Location: Bagnara
(41.0500°N, 14.7833°E)
Time: 09:56:57
(UTC+00:00)
Language:

Cosmos 773 Rocket - Orbit

View from above orbital plane
View from above orbital plane
View from above satellite
View from above satellite

Ground track
Ground track

The orbit data is extracted from the following two-line orbital elements,

1  8344U 75094B   21265.07515874  .00000091  00000-0  37918-4 0  9999
2  8344  74.0562 134.7200 0021741   2.8819 357.2457 14.39190682409790
Epoch (UTC): 22 September 2021 01:48:13
Eccentricity: 0.0021741
inclination: 74.0562°
perigee height: 745 km
apogee height: 776 km
right ascension of ascending node: 134.7200°
argument of perigee: 2.8819°
revolutions per day: 14.39190682
mean anomaly at epoch: 357.2457°
orbit number at epoch: 40979

The dashed part of the orbit path shows where the satellite is in the earth's shadow,  

DLR